Location: Bari
(41.1330°N, 16.8500°E)
Time: 08:09:57
(UTC+02:00)

ISS - Pass Details

Date: 15 May 2021
Orbit: 419 x 422 km, 51.6° (Epoch: 24 June)

Event Time Altitude Azimuth Distance (km) Brightness Sun altitude
Rises 23:37:31 0° 282° (WNW) 2,415 0.5 -27.5°
Reaches altitude 10° 23:40:09 10° 303° (WNW) 1,554 -0.3 -27.7°
Maximum altitude 23:42:36 18° 348° (NNW) 1,173 -0.7 -27.8°
Drops below altitude 10° 23:45:04 10° 32° (NNE) 1,567 -0.4 -28.0°
Sets 23:47:44 0° 53° (NE) 2,444 0.4 -28.1°
